Temp
15 15 15 15 14 14 14 14 13 13 13 13 13 13 12 12 12 12 12 12 12 12 12 12 12 12 13 13 13 13 13 13 13 13 13 13 14 14 13 13 13 13 13 13 13 12 12 12 11 11 11 11 11 11 11 10 10 10 9 9 8 8 8 7 7 7 7 7 6
15 15 15 15 14 14 14 14 13 13 13 13 13 13 12 12 12 12 12 12 12 12 12 12 12 12 12 13 13 13 13 13 13 13 13 13 13 14 13 13 13 13 13 13 12 12 12 12 11 11 11 11 11 11 10 10 10 10 9 9 8 8 8 7 7 7 7 6 6
15 15 15 15 14 14 14 13 13 13 13 13 13 13 12 12 12 12 12 12 12 12 12 12 12 12 12 13 13 13 13 13 13 13 13 13 13 13 13 13 13 13 13 13 12 12 12 12 11 11 11 11 11 11 10 10 10 9 9 8 8 8 8 7 7 7 7 6 6
15 15 15 15 14 14 14 13 13 13 13 13 13 13 12 12 12 12 12 12 12 12 12 12 12 12 12 12 12 13 13 13 13 13 13 13 13 13 13 13 13 13 13 12 12 12 12 11 11 11 11 11 11 10 10 10 10 9 9 8 8 8 8 7 7 7 7 6 6
15 15 15 15 15 14 14 14 13 13 13 13 13 12 12 12 12 12 12 12 12 12 12 12 12 12 12 12 12 12 12 12 12 12 12 12 13 13 13 13 13 13 12 12 12 12 11 11 11 11 11 11 10 10 10 10 9 9 8 8 8 8 8 7 7 7 6 6 6
15 15 15 15 15 14 14 14 14 13 13 13 13 12 12 12 12 12 12 12 12 12 12 12 12 12 12 12 12 12 12 12 12 12 12 12 12 13 13 13 13 13 12 12 12 11 11 11 11 10 10 10 10 10 9 9 9 8 8 8 8 7 7 7 7 6 6 6 6
15 15 15 15 15 14 14 14 14 13 13 13 13 13 12 12 12 12 12 12 12 12 12 12 12 12 12 12 11 11 11 11 11 12 12 12 12 12 12 12 12 12 12 12 11 11 11 11 10 10 10 9 9 9 9 9 8 8 8 7 7 7 7 7 7 6 6 6 6
15 15 15 15 15 14 14 14 14 13 13 13 13 13 13 12 12 12 12 12 12 12 12 12 12 12 12 12 11 11 11 11 11 11 11 12 12 12 12 12 12 12 12 12 11 11 11 10 10 10 9 9 8 8 8 8 8 7 7 7 7 7 7 7 6 6 6 6 6
15 15 15 15 15 14 14 14 14 13 13 13 13 13 13 13 13 12 12 12 12 12 12 12 12 12 12 12 11 11 11 11 11 11 11 11 11 11 11 12 12 12 11 11 11 11 10 10 10 9 9 8 8 8 8 8 7 7 7 7 7 7 7 7 6 6 7 6 6
15 15 15 15 14 14 14 14 14 14 13 13 13 13 13 13 13 13 13 13 13 12 12 12 12 12 11 11 11 11 11 11 11 10 10 11 11 11 11 11 11 11 11 11 11 10 10 10 9 9 8 8 8 8 7 7 6 7 7 7 7 7 7 7 6 7 7 7 6
15 15 15 15 14 14 14 14 14 13 13 13 13 13 13 13 13 13 13 13 13 12 12 12 12 12 11 11 11 11 11 10 10 10 10 10 11 11 11 11 11 11 11 11 10 10 10 9 9 8 8 8 8 7 7 6 6 7 7 7 7 7 7 6 6 6 7 7 6
15 15 15 15 14 14 14 14 13 13 13 13 13 13 12 12 13 13 13 12 12 12 12 12 12 12 11 11 11 11 10 10 10 10 10 10 10 10 11 11 11 11 11 11 10 10 9 9 8 8 7 7 7 7 7 6 6 7 7 7 7 7 7 6 6 6 6 6 6
15 15 15 14 14 14 14 13 13 13 13 13 13 13 12 12 12 12 12 12 12 12 12 12 12 12 12 11 11 11 10 10 10 10 10 10 10 10 10 10 11 11 11 10 10 10 9 9 8 8 8 8 7 7 6 6 7 7 8 7 7 7 7 7 6 6 6 6 6
15 15 14 14 14 14 13 13 13 13 13 13 13 12 12 12 12 12 12 12 12 12 12 12 12 12 12 11 11 11 11 11 10 10 10 10 10 10 10 10 10 11 11 10 10 10 9 9 8 8 8 8 7 7 7 7 7 8 8 7 7 7 7 7 7 6 6 6 6
14 14 14 14 14 13 13 13 13 13 13 13 13 12 12 12 12 12 12 12 12 12 12 12 11 11 11 11 11 11 10 10 10 10 10 10 10 10 10 10 10 11 10 10 10 9 9 9 8 8 8 8 7 7 7 7 8 8 8 7 7 7 7 7 7 7 7 6 6
14 14 14 14 13 13 13 13 13 13 13 13 13 12 12 12 12 12 12 12 12 12 12 11 11 11 10 10 10 10 10 10 9 9 9 9 9 9 9 10 10 10 10 10 9 9 9 9 8 8 8 8 7 7 8 8 8 8 8 7 7 7 7 7 7 7 7 6 6
14 14 13 13 13 13 13 13 13 13 13 13 13 12 12 12 12 12 12 12 12 11 11 11 11 10 10 9 9 9 9 9 9 9 9 9 9 9 9 9 10 10 10 10 9 9 9 8 8 8 8 7 7 8 8 8 8 8 8 7 7 7 7 7 7 7 7 6 6
13 13 13 13 13 13 13 13 13 13 13 12 12 12 12 12 12 11 11 11 11 11 11 10 10 9 9 9 8 8 8 8 8 8 8 8 8 8 8 8 9 9 10 9 9 9 9 8 8 8 7 7 7 8 8 8 8 8 7 7 7 7 7 7 7 7 7 6 6
13 13 13 13 13 13 13 13 13 13 12 12 12 12 12 12 11 11 11 11 11 11 10 10 9 9 8 8 8 8 8 7 7 7 7 7 7 7 7 8 9 9 10 10 10 9 9 8 8 7 7 7 7 7 8 8 8 7 7 7 7 7 7 7 7 7 6 6 6
13 13 13 13 13 13 13 13 12 12 12 12 12 12 11 11 11 11 11 11 10 10 10 10 9 9 8 8 8 8 8 7 7 7 7 7 7 7 7 8 9 10 10 10 10 9 9 8 8 7 7 7 7 7 7 7 7 7 7 7 7 7 7 7 7 6 6 6 6
13 13 13 13 13 13 12 12 12 12 12 12 12 11 11 11 11 11 11 11 11 10 10 10 10 9 9 9 9 8 8 8 8 8 8 8 8 8 9 9 10 10 10 10 9 9 8 8 8 8 7 7 7 7 7 7 7 7 7 7 7 7 7 7 6 6 6 6 6
13 13 13 13 12 12 12 12 12 12 12 12 12 11 11 11 11 11 11 11 11 10 10 10 10 10 10 10 9 9 9 9 9 9 9 9 9 9 10 10 10 10 10 9 9 8 8 8 8 8 7 7 7 7 7 7 7 7 7 7 7 7 7 7 6 6 6 6 6
13 13 12 12 12 12 12 12 12 12 12 11 11 11 11 11 11 11 11 10 10 10 10 10 10 10 10 10 10 9 9 9 9 9 9 9 10 10 10 10 10 10 9 9 9 8 8 8 8 8 7 7 7 7 7 7 7 7 7 7 7 7 7 7 6 6 6 6 6
12 12 12 12 12 12 12 11 11 11 11 11 11 11 11 11 10 10 10 10 10 10 10 9 9 9 9 9 9 9 9 8 8 8 9 9 9 10 10 10 10 9 9 9 9 9 8 8 8 8 8 8 7 7 7 7 7 7 7 7 7 7 7 7 7 6 6 6 6
12 12 12 12 11 11 11 11 11 11 11 11 11 10 10 10 10 10 10 9 9 9 9 9 9 9 9 9 8 8 8 8 8 8 8 8 9 9 9 9 9 9 9 9 9 8 8 8 8 8 8 8 7 7 7 7 7 7 7 7 7 7 7 7 7 7 6 6 6
12 11 11 11 11 11 11 11 11 10 10 10 10 10 10 10 10 10 9 9 9 9 9 9 9 8 8 8 8 8 8 8 8 9 9 8 9 9 9 9 9 9 9 9 8 8 8 8 8 8 8 8 7 7 7 7 7 7 7 7 7 7 7 7 7 7 7 6 6
11 11 11 11 11 10 10 10 10 10 10 10 10 10 9 9 9 9 9 9 9 9 9 8 8 8 8 8 8 8 8 8 8 9 9 9 9 9 9 9 9 9 9 9 8 8 8 8 8 8 7 7 7 7 7 7 7 7 7 7 6 6 6 7 7 7 7 6 6
11 11 11 10 10 10 10 10 10 10 9 9 9 9 9 9 9 9 9 9 8 8 8 8 8 8 8 8 8 8 8 8 8 8 9 9 9 9 10 9 9 9 9 8 8 8 8 8 7 7 7 7 7 7 7 7 7 7 6 6 6 6 6 6 7 7 7 6 6
10 10 10 10 10 10 9 9 9 9 9 9 9 9 9 9 9 9 8 8 8 8 8 8 7 7 7 7 7 8 8 8 8 8 9 9 9 10 10 10 9 9 9 8 8 8 8 7 7 7 7 7 7 7 7 7 7 6 6 6 6 6 6 6 6 6 6 6 6
10 10 10 10 9 9 9 9 9 9 9 9 9 8 8 8 8 8 8 8 8 8 8 7 7 7 7 7 7 7 7 8 8 8 9 9 9 9 9 9 9 9 8 8 8 8 7 7 7 7 6 6 7 7 7 7 6 6 6 6 6 6 6 6 6 6 6 6 6
10 10 10 9 9 9 9 9 9 9 8 8 8 8 8 8 8 8 8 8 7 7 7 7 7 7 7 7 7 7 7 8 8 8 9 9 9 9 9 9 9 9 8 8 8 7 7 7 7 6 6 6 6 6 6 6 6 6 6 6 6 7 7 6 6 6 6 6 5
10 10 9 9 9 9 9 8 8 8 8 8 8 8 8 8 8 7 7 7 7 7 7 7 7 7 7 7 7 7 7 8 8 9 9 9 9 9 9 9 9 8 8 8 8 7 7 7 7 6 6 5 5 5 6 6 6 6 6 6 7 7 7 6 6 6 6 5 5
10 9 9 9 9 9 8 8 8 8 8 8 7 7 7 7 7 7 7 7 7 7 7 7 7 7 7 7 7 7 7 8 8 9 9 9 9 9 9 9 8 8 8 8 8 7 7 7 7 6 6 5 5 5 5 6 6 6 6 6 6 7 6 6 6 6 5 5 4
9 9 9 9 9 8 8 8 8 7 7 7 7 7 7 7 7 7 6 6 6 6 6 7 7 7 7 7 7 7 7 8 8 9 9 9 9 9 8 8 8 8 8 8 8 7 7 7 6 6 5 5 5 5 5 5 5 5 6 6 6 6 6 6 6 5 5 5 4
9 9 9 9 8 8 8 8 7 7 7 7 7 7 7 7 7 6 6 6 6 6 6 6 6 6 7 7 7 7 8 8 8 8 9 8 8 8 8 8 8 8 8 8 8 7 7 7 6 6 5 5 5 5 5 5 5 5 5 5 5 5 5 5 5 5 5 4 4
9 9 9 8 8 8 8 7 7 7 7 7 7 7 6 6 6 6 6 6 6 6 6 6 6 6 6 6 6 7 7 8 8 8 8 8 8 8 8 8 8 8 8 8 8 7 7 7 6 6 5 5 5 5 5 5 5 5 5 5 5 5 5 5 5 4 4 4 3
9 9 9 8 8 8 8 7 7 7 7 7 7 6 6 6 6 6 6 6 6 5 5 5 5 6 6 6 6 7 7 8 8 8 8 8 8 8 8 8 8 8 8 8 8 7 7 6 6 6 5 5 5 5 5 5 5 5 5 5 5 5 5 5 4 4 4 4 3
9 9 9 8 8 8 8 7 7 7 7 7 7 6 6 6 6 6 6 5 5 5 5 5 5 6 6 6 6 7 7 7 8 8 8 8 8 8 8 8 8 8 8 8 7 7 6 6 6 5 5 5 5 5 5 5 5 5 5 5 5 5 4 4 4 4 4 3 3
9 9 9 8 8 8 8 7 7 7 7 7 7 6 6 6 6 6 6 6 6 6 6 5 6 6 6 6 6 7 7 7 7 8 8 8 8 8 8 8 8 8 8 7 7 6 6 6 6 6 6 6 5 5 5 5 5 5 5 4 4 4 4 4 4 4 3 3 3
9 8 8 8 8 8 8 7 7 7 7 7 7 6 6 6 6 6 6 5 6 6 6 6 6 6 6 6 6 6 6 7 7 7 7 8 8 8 8 8 8 8 7 7 7 6 6 6 6 6 6 6 6 5 5 5 5 4 4 4 4 4 4 4 4 3 3 3 3
8 8 8 8 8 8 8 8 7 7 7 7 7 7 6 6 6 6 6 5 5 5 6 6 6 6 6 6 6 6 6 7 7 7 7 7 7 7 7 8 8 7 7 7 7 7 7 7 7 6 6 6 6 5 5 5 4 4 4 4 4 4 4 3 3 3 3 3 3
Height
778 779 780 781 781 782 783 784 785 786 787 789 790 791 792 794 795 796 797 798 799 801 801 802 804 805 806 808 809 810 811 813 814 815 816 817 819 820 821 822 822 823 823 824 825 826 826 827 828 829 829 830 830 830 830 830 831 831 831 832 832 832 832 833 833 833 833 834 834
777 778 779 780 781 781 783 784 785 786 786 788 789 790 791 792 794 795 796 797 798 799 801 802 803 804 806 807 808 809 810 811 813 814 815 816 817 818 820 821 821 822 822 823 823 824 825 826 826 827 828 829 829 829 829 829 830 830 831 831 831 831 831 832 832 832 833 833 833
776 777 778 779 780 781 782 783 783 784 786 787 788 789 790 791 793 794 795 796 797 799 800 801 802 803 805 806 807 808 809 810 811 812 814 815 816 817 818 819 820 821 821 822 822 823 824 825 826 826 827 827 828 828 828 828 829 829 829 830 830 830 831 831 831 832 832 832 833
775 776 777 778 779 779 780 781 782 783 785 786 787 788 790 791 792 793 794 795 797 798 799 800 801 802 804 805 806 807 808 809 810 811 812 813 815 816 817 818 819 820 820 821 821 822 823 824 824 825 826 826 826 827 827 827 828 828 828 829 829 829 830 830 831 831 831 831 832
774 775 776 776 777 778 779 780 781 782 784 785 786 788 789 790 791 792 793 795 796 796 797 799 800 801 802 804 805 806 806 808 809 810 811 812 813 814 816 816 818 818 819 820 821 821 822 823 823 824 825 825 826 826 826 826 827 827 827 828 828 829 829 830 830 830 831 831 831
773 774 775 776 776 777 779 780 781 782 783 784 785 786 787 788 790 791 792 793 794 795 796 798 799 800 801 802 803 804 805 806 807 808 809 810 811 813 814 815 816 817 818 819 820 821 821 822 822 823 824 824 825 825 826 826 826 826 826 827 827 828 828 829 829 829 830 830 830
772 773 774 775 776 777 778 779 780 781 782 783 784 785 786 786 788 789 790 791 793 794 796 797 798 799 800 801 802 803 804 805 806 807 808 809 810 811 812 814 815 816 817 818 819 820 820 821 821 822 823 824 824 825 825 825 826 826 826 826 826 827 827 828 828 829 829 829 829
771 772 773 774 775 776 777 778 779 780 781 782 782 783 784 785 786 787 789 791 792 793 794 796 796 797 798 800 801 802 803 804 805 806 807 808 809 810 811 812 814 815 816 817 818 818 819 820 821 821 822 823 823 824 824 825 825 825 825 825 826 826 827 827 827 828 828 828 828
771 771 772 773 774 775 776 777 778 779 780 780 781 782 783 784 785 786 788 789 790 791 793 794 795 796 797 798 799 800 801 803 804 805 806 806 807 809 810 811 813 814 815 816 817 817 818 819 820 821 821 822 823 823 824 824 824 824 824 824 825 825 826 826 827 827 827 827 827
770 771 771 772 773 774 775 776 777 778 778 780 781 781 783 784 785 786 787 788 789 791 791 792 794 795 796 797 798 799 800 801 802 803 804 805 806 807 809 810 811 812 814 815 816 816 817 818 819 820 821 822 822 823 823 823 824 824 823 823 824 824 825 826 826 826 826 826 826
768 769 770 771 772 773 774 775 776 777 778 779 780 781 782 783 784 785 786 787 788 790 791 791 792 794 795 796 797 798 799 801 801 802 803 804 805 806 807 809 810 811 812 813 814 815 816 817 818 819 821 821 822 822 823 823 823 823 823 823 823 824 824 825 825 825 825 825 826
767 768 769 770 771 772 773 775 776 777 778 779 780 781 781 782 783 785 786 787 788 789 790 791 791 793 794 795 796 797 799 800 801 802 803 804 805 806 806 808 809 810 811 812 813 815 816 817 818 819 820 821 821 822 823 823 823 823 823 822 822 823 823 824 824 824 824 824 825
766 767 768 769 771 771 773 774 775 776 777 778 779 780 781 782 783 784 785 786 787 788 789 790 791 792 793 794 795 796 797 799 800 801 802 803 804 805 806 807 808 809 811 812 813 814 815 816 817 818 819 820 821 821 822 822 823 823 822 822 822 822 822 823 823 823 823 824 824
766 766 767 769 770 771 772 773 774 775 776 777 778 779 780 781 782 783 784 785 786 787 788 789 790 791 792 793 794 795 796 797 798 799 800 801 802 803 804 806 807 808 810 811 812 814 815 816 816 817 818 819 820 820 821 821 822 822 822 821 821 821 822 822 822 823 823 823 823
765 766 767 768 769 770 771 772 773 774 775 776 777 778 779 780 781 782 783 784 785 786 787 788 789 790 791 792 793 794 794 796 796 798 799 800 801 801 803 804 806 807 809 810 811 813 814 815 816 817 817 818 818 819 820 821 821 821 821 821 821 821 821 821 822 822 822 822 822
764 765 766 767 768 769 770 771 772 773 774 775 776 777 778 779 780 781 783 784 785 786 786 787 788 790 791 792 793 794 794 795 796 797 798 799 799 800 801 802 804 805 807 809 811 812 814 815 816 816 817 817 817 818 819 820 820 820 820 820 820 820 821 821 821 821 821 821 821
764 765 766 766 767 768 769 770 771 772 773 774 775 776 777 778 779 781 782 783 784 785 786 787 788 789 790 791 793 794 794 795 796 797 797 798 799 800 801 801 802 804 806 808 810 812 813 814 815 816 816 816 817 817 818 818 819 819 819 819 819 819 820 820 820 820 820 820 820
763 764 765 766 766 767 768 769 770 771 772 773 774 775 776 777 778 780 781 782 783 784 785 787 788 789 790 791 792 793 794 795 796 797 798 798 799 799 800 801 802 804 806 808 810 811 812 813 814 815 815 816 816 816 817 817 817 817 818 818 818 818 818 819 819 819 819 819 819
763 764 765 765 766 767 768 769 770 771 772 773 774 775 776 777 778 779 780 781 782 783 785 786 787 789 790 791 792 793 794 795 796 797 798 799 799 800 801 802 804 805 807 808 810 811 811 812 813 813 814 815 815 816 816 816 816 816 816 817 817 817 817 817 818 818 818 818 817
762 763 764 765 766 767 768 769 770 771 772 773 774 775 776 777 778 779 780 781 782 783 784 785 786 788 789 790 791 793 794 795 796 797 798 799 801 801 803 804 805 806 807 808 809 810 811 811 812 813 813 814 815 815 815 815 815 815 816 816 816 816 816 816 816 816 816 816 816
762 763 764 765 766 767 768 769 770 770 771 772 773 774 775 776 777 778 779 780 781 782 783 784 785 786 787 789 790 791 792 793 794 796 797 799 801 802 803 804 805 806 806 807 808 809 810 811 811 812 813 813 814 814 814 814 814 814 815 815 815 815 815 816 816 816 816 815 815
762 763 764 765 766 766 767 768 769 770 771 771 772 773 774 775 776 777 778 779 780 781 782 782 783 784 785 786 787 788 790 791 792 793 795 796 799 800 802 803 803 804 805 806 807 808 809 810 811 811 812 812 813 813 813 813 813 813 814 814 814 814 814 815 815 814 814 814 814
761 762 763 764 765 766 767 767 768 769 770 771 772 773 773 774 775 776 777 778 779 780 781 782 783 783 784 785 786 787 788 790 791 792 793 795 796 797 799 800 801 803 804 805 806 807 808 809 810 810 811 811 812 812 812 812 812 813 813 813 813 813 813 813 813 813 813 813 813
761 762 763 764 765 766 766 767 768 769 770 770 771 772 773 774 775 776 777 778 779 780 781 781 782 783 784 785 786 787 788 790 791 792 793 794 794 796 797 799 800 802 803 804 805 806 807 808 808 809 810 810 811 811 811 811 811 812 812 812 812 812 812 812 812 812 812 812 811
760 761 762 763 764 765 766 766 767 768 769 770 771 772 773 774 775 776 777 778 779 780 781 781 782 783 784 786 786 787 788 789 791 791 792 793 794 795 796 798 800 801 802 803 804 805 806 807 807 808 809 809 810 810 810 811 811 811 811 811 811 811 811 811 811 811 811 810 810
760 761 762 763 764 765 765 766 767 768 769 770 771 772 773 773 774 775 776 777 778 779 780 781 782 783 784 785 786 787 788 789 790 791 791 792 793 795 796 797 799 800 801 802 803 804 805 806 807 807 808 808 808 809 809 809 810 810 810 810 810 810 810 810 809 809 809 809 809
760 761 762 762 763 764 765 766 767 768 769 770 771 771 772 773 774 775 776 777 777 779 780 780 781 782 783 784 785 786 787 788 789 790 790 791 792 794 795 796 798 799 800 801 802 803 804 805 806 806 807 807 807 808 808 808 808 809 809 809 809 809 808 808 808 808 808 808 808
760 761 761 762 763 764 765 766 766 767 768 769 770 771 772 773 773 774 775 776 777 778 779 780 781 781 782 783 784 785 786 786 788 789 790 791 792 793 795 796 797 798 799 800 801 802 803 804 805 805 806 806 806 806 807 807 807 807 807 807 807 807 807 807 807 807 806 806 806
759 760 761 762 763 764 764 765 766 767 768 769 770 771 771 772 773 774 775 775 776 777 778 779 780 781 781 782 783 784 785 786 787 788 789 791 792 793 794 795 796 797 798 800 801 801 802 803 803 804 804 805 805 805 806 806 806 806 806 806 806 806 806 806 806 806 805 805 805
759 760 761 761 762 763 764 765 765 766 767 768 769 770 771 771 772 773 774 774 775 776 776 777 779 779 780 781 782 783 784 785 786 787 789 790 791 792 793 794 795 796 798 799 800 801 801 802 802 803 803 804 804 804 804 805 805 805 805 805 805 805 805 805 805 804 804 803 803
758 759 760 761 762 762 763 764 765 766 767 767 768 769 770 771 771 772 773 773 774 775 776 777 778 778 779 780 781 782 783 784 786 787 788 789 790 791 792 793 795 796 797 798 799 799 800 801 801 802 802 802 803 803 803 803 803 803 803 803 803 803 803 803 803 803 802 802 801
758 759 760 761 761 762 763 764 765 765 766 767 767 768 769 770 771 771 772 773 774 775 776 776 777 778 779 780 781 781 783 784 785 786 787 788 790 791 791 793 794 795 796 797 798 798 799 800 800 801 801 801 801 801 801 801 802 802 802 802 802 802 802 802 801 801 801 800 800
757 758 759 760 761 761 762 763 764 765 765 766 767 767 768 769 770 771 772 773 774 774 775 776 776 777 778 779 780 781 782 783 784 786 787 788 789 790 791 792 793 794 795 796 797 797 798 798 799 799 800 800 800 800 800 800 800 801 801 801 801 801 801 800 800 799 799 799 799
757 758 759 759 760 761 761 762 763 764 765 766 766 767 768 769 770 771 771 772 773 774 774 775 776 776 777 778 779 780 781 783 784 785 786 787 788 790 791 791 792 793 794 795 796 796 797 797 798 798 798 799 799 799 799 799 799 799 799 799 799 799 799 798 798 798 797 797 797
756 757 758 759 759 760 761 762 763 763 764 765 766 766 767 768 769 770 771 771 772 773 774 775 776 777 778 779 780 780 781 782 783 785 786 787 788 789 790 791 791 792 793 794 795 795 796 796 796 797 797 798 798 798 798 798 798 798 798 798 798 797 797 797 796 796 796 796 796
756 757 757 758 759 760 761 761 762 763 764 765 766 766 767 768 769 769 770 771 772 773 774 775 776 777 778 779 780 781 781 782 783 784 785 786 787 788 789 790 791 792 793 793 794 794 795 795 796 796 796 797 797 797 798 798 797 797 797 796 796 796 795 795 795 795 795 795 794
756 756 757 758 759 759 760 761 762 763 764 764 765 766 766 767 768 770 771 771 772 773 774 775 776 776 777 778 779 780 781 782 783 784 785 786 787 787 788 789 790 791 792 792 793 794 794 794 795 795 796 796 796 796 796 796 796 796 796 795 794 794 794 794 794 793 793 793 793
756 756 757 758 758 759 760 761 762 762 763 764 765 766 766 767 768 769 770 771 772 772 773 774 775 776 776 777 779 780 781 782 783 784 785 786 786 787 788 788 789 790 791 792 793 793 793 794 794 795 795 795 795 795 795 795 795 794 794 793 793 792 792 792 792 792 791 791 791
755 756 757 757 758 759 760 761 761 762 763 764 765 766 766 767 768 769 770 771 771 772 773 774 775 776 777 778 779 780 781 782 783 784 785 785 786 787 787 788 789 790 791 791 792 792 793 793 793 794 794 794 794 794 794 793 793 792 792 791 791 791 790 790 790 790 790 789 789
755 756 757 757 758 759 760 760 761 762 763 764 764 765 766 767 768 769 770 771 771 772 773 774 775 776 777 778 779 780 781 782 783 784 785 785 786 787 787 788 789 790 791 791 791 792 792 792 792 793 793 793 792 792 792 792 791 791 790 790 789 789 788 788 788 788 788 787 787
755 756 757 757 758 759 760 760 761 762 763 763 764 765 766 767 768 769 770 771 771 772 773 774 775 776 777 778 779 780 781 782 783 784 784 785 786 787 787 788 789 789 790 791 791 791 791 791 791 791 791 791 791 791 791 791 790 789 788 788 787 787 787 786 786 786 786 786 785
Wind_Speed
29 29 29 30 31 31 31 30 31 32 33 33 32 32 33 34 34 34 35 36 36 36 36 36 37 37 36 36 35 34 32 31 30 29 28 28 28 28 27 26 24 23 21 20 19 18 17 15 14 13 12 12 11 10 9 9 9 8 8 8 9 9 8 8 8 8 8 7 7
29 29 29 29 31 31 31 30 30 31 33 33 33 33 34 34 34 34 35 36 37 37 37 37 37 37 36 36 35 34 33 32 31 30 29 29 28 28 27 26 25 23 22 20 19 18 17 16 15 14 14 13 12 11 11 10 9 9 9 9 9 9 9 8 8 8 8 7 7
30 29 29 29 29 30 30 29 30 31 32 32 33 33 33 34 34 34 35 36 37 37 37 37 37 37 37 36 35 35 34 33 32 31 31 30 29 29 28 27 25 24 22 21 20 19 18 17 16 15 14 13 12 12 11 11 10 10 10 10 10 9 9 9 8 8 8 8 7
30 30 29 29 29 30 30 30 30 31 32 32 32 32 33 33 34 34 35 36 36 37 37 37 37 37 37 36 36 35 34 34 33 33 32 31 30 29 28 27 26 24 22 21 20 19 18 17 16 15 14 13 12 12 12 11 11 11 11 10 10 9 9 9 8 8 8 7 7
31 30 30 29 30 30 31 30 31 31 32 32 31 31 32 32 33 33 34 35 35 37 38 38 38 37 37 37 36 36 35 34 34 33 33 32 31 30 29 28 26 25 23 21 20 19 19 17 17 16 15 14 13 13 13 12 12 12 12 11 10 9 9 8 8 8 7 7 7
31 31 30 29 30 30 30 30 31 31 32 32 32 32 32 32 33 33 34 35 36 37 38 37 37 37 37 37 36 36 36 35 35 34 33 33 32 31 30 29 27 25 23 22 21 20 19 18 17 16 15 15 14 14 13 13 13 12 12 11 10 9 8 8 8 8 7 7 6
32 31 30 29 29 29 29 29 30 31 32 32 32 33 33 33 34 34 35 36 36 37 37 36 36 37 37 37 37 36 36 35 35 35 34 33 32 32 30 29 27 25 24 22 21 21 20 19 18 17 17 16 16 15 15 14 13 13 13 12 10 9 9 9 8 8 7 7 6
31 30 29 28 28 29 29 30 30 31 32 32 33 34 35 35 35 35 35 35 36 36 36 36 36 36 37 37 37 37 37 36 36 35 34 34 33 32 31 29 28 25 24 23 22 21 21 19 18 18 18 17 17 16 16 15 14 14 13 11 10 9 9 9 9 8 7 6 6
30 29 29 28 28 29 30 30 31 32 33 33 34 34 35 35 35 35 35 35 35 36 36 36 36 36 36 37 37 37 37 37 36 36 35 34 33 33 31 30 27 26 24 23 23 22 21 20 19 18 18 17 17 17 16 15 15 14 12 11 10 9 9 9 9 8 7 6 6
29 28 28 28 28 29 30 31 32 32 33 33 33 34 34 34 34 35 35 35 35 35 35 36 36 36 36 36 37 37 37 37 36 36 35 34 34 33 32 30 28 26 25 24 24 22 21 20 19 18 18 17 17 16 16 16 15 14 12 10 9 9 9 9 8 8 7 6 6
29 28 28 28 29 30 30 31 31 32 32 32 32 33 33 33 34 34 34 34 34 34 35 35 35 35 35 36 36 36 36 36 36 36 35 34 34 33 32 30 28 27 26 25 24 23 21 20 19 18 18 17 17 17 17 17 16 14 12 10 10 10 10 9 8 7 7 6 7
28 28 29 29 30 30 30 31 31 31 31 31 32 32 32 32 33 33 33 33 33 33 34 34 34 34 35 35 35 35 36 36 35 35 35 34 33 32 31 30 28 27 26 26 24 23 21 20 19 18 18 17 17 17 18 17 16 14 12 11 10 10 10 9 8 7 7 7 7
28 28 29 29 30 30 30 31 30 30 30 31 31 31 32 32 32 33 33 33 33 33 33 33 33 34 34 34 35 35 35 35 35 35 35 34 33 32 31 29 28 27 26 25 24 22 21 20 19 18 18 17 17 18 18 17 15 13 12 11 11 10 10 9 8 8 7 7 8
27 28 29 30 30 30 30 30 30 30 30 30 31 31 31 31 32 32 32 32 32 32 33 33 33 33 33 33 34 35 35 36 36 35 35 34 34 33 31 30 28 27 26 25 24 22 20 19 18 18 17 17 17 17 17 16 14 12 11 11 11 10 9 9 8 8 8 8 8
27 28 29 29 30 30 30 30 30 30 30 30 30 31 31 31 31 32 32 32 32 32 32 32 32 32 32 33 33 34 35 35 36 35 35 34 34 33 32 30 29 27 26 25 23 21 19 18 18 17 17 17 17 16 15 14 13 12 11 10 10 9 9 8 8 8 8 8 9
26 27 28 29 30 30 30 30 30 30 30 30 30 31 31 31 31 31 31 31 31 31 32 32 32 32 32 32 32 33 34 34 35 34 34 33 33 33 32 31 30 28 27 25 23 20 18 17 17 17 16 16 16 15 14 13 13 12 11 10 9 9 9 8 8 8 8 9 10
26 27 28 29 29 30 30 30 30 30 30 30 30 30 30 31 31 31 31 31 31 31 31 31 31 31 31 31 31 31 32 33 33 32 32 32 32 32 32 31 30 29 26 24 21 19 17 17 17 16 16 15 15 14 13 13 12 11 11 10 10 9 9 9 8 8 9 10 10
26 27 27 28 29 29 30 30 30 30 30 30 30 30 30 30 30 30 31 31 31 31 30 30 30 30 30 30 30 30 30 30 30 30 30 30 30 30 31 30 29 27 24 21 19 17 17 17 17 17 16 15 15 14 13 13 12 11 10 10 10 9 9 9 9 9 10 11 11
25 26 27 27 28 29 29 29 29 29 29 29 29 29 30 30 30 30 30 30 30 30 30 29 29 28 28 28 28 27 27 27 27 27 26 27 27 27 27 27 25 22 20 18 17 17 17 17 17 17 16 16 15 15 14 13 12 11 11 10 10 10 10 10 10 10 11 12 12
25 25 26 27 27 28 28 29 29 28 28 28 29 29 29 29 30 30 30 30 30 30 30 29 29 28 28 28 27 27 27 27 26 26 25 24 24 23 23 22 20 18 17 17 17 17 16 16 16 16 16 16 16 15 14 13 12 12 11 11 11 10 10 10 11 11 12 13 13
24 25 25 26 26 27 27 28 28 28 28 28 28 29 29 29 30 30 30 30 30 30 30 30 29 29 29 29 28 28 28 28 28 27 26 24 22 21 20 19 19 18 18 18 17 17 16 16 16 16 16 16 15 15 14 13 13 12 12 11 11 11 11 12 12 13 13 14 14
24 24 25 25 26 26 27 27 27 28 28 28 28 29 29 30 30 30 30 30 30 30 30 30 30 30 29 30 30 30 30 30 29 28 26 24 22 20 20 20 20 20 19 18 18 17 17 16 16 16 16 16 15 15 14 13 13 13 12 12 12 12 12 13 13 14 14 15 15
25 24 24 25 25 26 26 27 27 27 27 28 28 29 29 29 29 29 29 29 29 29 29 29 29 29 29 29 29 30 29 29 28 27 25 23 22 22 23 23 22 21 20 19 18 17 17 17 17 16 16 16 15 15 14 13 13 13 13 13 13 13 13 14 14 15 15 15 16
25 25 24 25 25 25 26 26 26 27 27 27 27 28 28 28 28 28 28 28 28 28 28 28 28 28 28 28 28 28 28 27 26 25 25 24 25 25 25 24 22 20 19 18 17 17 17 17 17 17 16 16 15 14 14 13 13 13 13 13 13 14 14 14 15 15 16 16 17
24 24 24 24 25 25 25 26 26 26 26 26 27 27 27 27 27 27 27 27 27 27 27 26 26 26 26 26 26 26 26 26 25 26 26 26 27 26 25 23 21 19 18 17 17 17 17 16 16 16 16 15 14 14 13 13 13 13 13 13 14 14 14 15 16 16 17 18 18
23 23 24 24 24 25 25 25 25 25 25 25 25 26 26 26 26 26 26 26 26 26 26 26 26 26 26 26 26 26 26 26 26 27 28 28 27 25 23 21 20 19 19 18 17 17 17 16 16 15 15 14 14 14 13 13 13 13 13 13 14 14 15 16 17 17 18 19 19
22 23 23 23 24 24 24 24 24 24 24 24 25 25 25 26 26 26 26 26 26 26 26 25 25 25 26 26 26 26 27 27 27 28 28 28 26 24 22 21 20 20 19 18 18 17 17 16 16 15 15 15 14 14 13 13 13 13 13 14 14 15 16 17 18 19 19 20 21
22 22 22 22 23 23 23 24 23 23 24 24 24 24 25 25 25 25 25 26 26 26 26 26 25 25 26 26 27 27 28 28 28 28 28 27 25 23 22 21 21 20 19 18 18 17 17 16 16 16 15 15 15 14 13 13 13 13 14 15 15 16 17 18 19 19 20 21 22
21 21 22 22 22 23 23 23 23 23 24 24 24 24 24 25 25 25 26 26 26 26 26 26 26 26 27 27 28 28 28 28 29 28 27 26 24 22 21 21 20 19 18 18 17 17 17 16 16 16 15 15 15 14 14 13 13 14 15 15 16 17 17 18 19 20 21 22 23
21 21 21 22 22 22 23 23 23 23 23 23 23 24 24 25 25 25 26 26 27 27 27 27 27 27 28 29 29 29 29 29 29 28 27 25 23 22 21 20 19 19 18 17 17 17 16 16 16 16 15 15 14 14 13 13 13 14 15 15 16 17 18 19 20 21 22 23 24
20 21 21 22 22 22 22 22 23 23 23 23 23 24 24 25 25 26 26 27 27 27 26 27 27 28 29 29 29 30 30 29 28 27 26 24 23 22 21 20 19 18 17 17 17 16 16 16 16 15 15 15 15 14 14 13 13 14 15 15 16 17 18 19 20 21 23 24 24
20 20 21 21 22 22 22 22 22 22 22 23 23 24 24 25 25 26 26 26 26 26 27 27 28 29 29 29 29 30 30 29 29 27 26 24 23 22 21 20 18 18 17 17 16 16 16 16 15 15 15 15 15 15 15 14 14 15 15 16 16 17 18 19 21 22 23 24 25
20 20 21 21 21 22 22 22 22 22 22 22 23 24 24 24 25 25 25 25 26 27 27 28 29 29 30 30 30 30 30 29 28 27 25 24 22 21 20 19 18 17 16 16 16 16 15 15 15 14 14 14 15 16 16 16 15 16 16 16 17 17 18 20 21 23 24 25 26
20 20 20 21 21 21 21 21 21 21 22 22 23 23 24 24 24 25 25 26 26 27 27 28 29 29 30 30 30 30 30 29 28 26 25 24 22 21 20 19 18 17 16 15 15 15 15 15 14 14 14 14 15 16 17 17 17 17 18 18 18 19 20 21 22 24 25 26 27
19 20 20 21 21 21 21 21 21 21 21 22 22 23 23 24 24 25 25 26 26 26 26 27 27 28 28 28 29 29 29 29 28 26 25 24 22 21 20 19 17 16 15 15 15 15 15 14 13 13 13 14 15 17 18 18 19 19 19 19 20 20 21 22 24 25 26 27 28
18 19 20 20 20 20 20 20 21 21 21 22 22 23 23 24 24 25 25 25 25 25 26 26 26 27 27 28 28 29 29 28 28 26 25 23 22 21 19 18 17 16 15 15 15 15 14 12 12 11 12 13 15 16 17 18 19 19 20 21 22 22 23 24 25 26 27 28 28
17 18 18 19 19 20 20 20 20 21 21 21 22 22 23 23 23 24 24 24 24 25 25 26 26 27 28 28 29 29 28 28 27 26 24 23 22 20 19 18 17 16 15 15 15 14 12 11 10 10 11 13 14 15 16 17 18 19 21 22 23 23 24 25 26 26 27 28 28
16 16 17 18 19 19 19 19 20 20 21 21 21 22 22 23 23 23 24 24 24 25 25 26 26 27 27 28 28 27 27 26 25 24 23 22 21 20 19 17 16 15 14 14 13 12 11 9 9 9 11 12 14 15 16 17 19 20 21 23 24 24 25 26 26 27 27 28 28
15 15 16 17 18 18 19 19 19 20 20 20 20 21 21 22 23 23 23 24 24 24 25 25 26 26 26 26 26 26 25 25 24 23 22 21 20 18 17 16 15 14 13 12 11 10 9 8 8 9 10 12 13 15 16 17 19 21 22 23 25 25 26 26 26 27 27 28 27
15 14 15 15 16 17 18 19 19 19 19 19 20 20 21 22 22 22 22 23 23 24 24 25 25 25 25 25 24 24 24 23 22 21 20 19 18 17 16 15 13 12 11 10 9 8 8 8 8 9 11 12 14 15 16 18 20 22 23 24 25 26 26 27 26 27 27 27 27
14 14 14 14 15 16 17 17 18 18 18 18 19 19 20 20 21 21 21 22 22 22 23 23 24 24 23 23 23 22 22 22 21 20 19 18 17 16 15 13 12 11 10 9 8 8 9 9 10 11 12 13 15 16 17 19 21 23 24 25 26 26 26 26 26 26 26 27 27
Wind_Direction
192 192 193 193 193 193 193 193 193 193 192 191 191 191 192 192 192 193 195 195 195 195 195 196 196 197 198 199 200 202 204 205 206 208 208 209 209 209 208 207 206 205 202 200 197 193 192 192 194 195 197 198 197 197 196 197 199 202 205 206 205 205 205 206 208 210 213 214 214
193 193 194 194 195 194 194 194 194 194 193 193 193 194 194 194 194 195 197 197 198 198 198 198 199 199 200 201 202 204 205 206 207 207 208 208 209 209 209 208 208 207 205 201 197 194 193 194 195 196 197 198 197 196 196 197 200 202 203 203 203 202 203 205 207 209 212 213 214
193 194 194 195 195 195 194 193 194 194 193 194 195 196 196 196 196 197 198 199 200 200 200 199 200 201 202 202 203 205 206 207 207 207 207 207 208 209 209 209 209 208 206 203 199 196 195 195 196 197 198 198 198 197 196 196 199 202 202 201 199 199 200 202 204 206 208 212 214
194 195 195 196 196 196 195 195 194 194 194 194 195 196 196 197 197 199 200 200 201 201 202 202 203 203 203 203 203 204 206 207 207 207 206 207 207 208 209 210 210 209 207 204 200 198 197 197 197 198 199 200 199 198 195 194 197 199 199 199 197 197 198 200 202 204 208 211 216
196 196 197 198 199 198 197 197 195 194 194 195 195 196 196 197 198 199 200 200 201 203 205 205 205 204 204 204 204 204 205 206 206 206 206 206 207 208 209 210 210 209 207 204 201 199 198 198 198 199 200 201 201 198 196 196 196 196 195 195 196 197 198 199 201 204 208 212 217
197 198 200 201 201 199 198 198 197 196 195 195 195 195 196 197 198 199 200 201 203 205 206 207 206 205 204 203 203 203 203 204 205 205 206 206 206 207 208 209 210 209 207 204 201 200 199 199 198 198 199 199 199 198 197 198 196 194 192 192 193 195 198 201 203 206 209 214 220
199 200 201 202 201 200 198 198 198 197 196 196 196 197 197 198 199 200 202 204 205 205 206 206 206 206 204 203 202 202 202 202 203 205 205 205 206 206 207 208 209 208 206 204 202 200 200 200 198 197 196 197 197 196 197 198 197 195 192 191 192 195 199 202 205 208 212 217 224
200 201 202 203 202 200 199 199 198 197 197 197 198 199 200 200 201 202 203 204 205 206 206 206 207 207 205 204 202 202 202 202 202 203 205 205 205 206 207 207 207 206 206 205 203 201 200 200 199 197 195 195 195 196 197 198 198 196 194 192 192 196 200 204 208 211 215 222 230
200 202 203 204 202 201 200 200 199 199 198 199 200 201 202 202 202 203 203 204 206 207 207 207 207 207 207 205 204 203 202 202 202 203 204 204 205 205 206 206 206 205 205 205 204 203 201 200 199 197 196 195 196 198 199 200 199 199 197 195 196 198 202 205 210 214 220 228 237
200 202 203 203 202 201 201 201 201 201 201 201 201 202 202 203 203 204 205 206 207 207 207 207 207 207 206 206 205 203 203 203 203 203 203 204 205 206 206 206 205 204 204 204 204 203 201 199 197 196 196 197 198 199 201 202 202 202 200 198 199 202 205 208 212 217 224 234 243
201 203 203 202 201 200 200 199 200 201 201 201 201 201 202 203 204 205 206 207 207 206 207 208 207 206 205 205 205 204 203 203 203 203 203 204 205 206 207 207 206 204 203 203 203 202 201 199 197 196 196 198 200 201 203 204 205 205 203 201 202 205 208 211 215 221 229 238 247
203 203 202 201 200 199 198 198 198 198 199 200 200 201 202 203 204 206 206 207 206 207 208 209 208 207 206 206 205 204 204 204 204 204 204 205 205 206 207 207 206 205 204 203 203 201 200 198 197 196 197 198 201 203 204 205 206 207 205 204 204 207 210 213 217 224 232 242 250
203 201 200 199 198 197 196 196 196 197 197 199 200 201 202 203 205 206 206 207 207 208 208 209 209 209 208 207 205 205 205 206 206 206 206 206 206 206 206 206 206 205 204 204 203 202 200 198 197 197 198 199 201 203 205 207 208 209 207 205 206 207 210 213 219 225 234 244 252
200 198 197 196 195 195 194 195 195 196 197 198 200 201 202 203 205 206 207 208 208 208 208 208 209 209 209 208 207 206 206 207 207 207 207 206 206 205 205 206 206 206 205 205 204 203 201 199 198 198 199 200 200 202 204 207 211 212 211 209 208 209 212 215 221 229 238 246 254
195 194 194 193 193 193 193 194 195 196 197 199 200 202 202 203 205 206 207 208 209 209 209 208 207 208 208 208 208 207 206 206 206 206 205 205 205 205 205 205 206 205 205 204 203 202 201 199 199 200 201 201 201 201 204 208 212 214 214 214 214 215 217 220 227 235 243 251 258
190 191 191 192 192 192 193 194 196 197 198 199 201 203 203 203 205 206 207 207 208 208 208 207 206 205 205 206 206 205 205 204 204 204 204 204 204 204 204 204 204 204 203 201 200 200 200 200 201 202 202 202 201 203 206 210 213 215 215 216 218 221 224 228 234 242 249 256 262
188 189 190 191 192 193 194 196 197 198 199 200 202 203 203 203 204 204 205 206 206 206 206 205 204 202 201 201 202 203 202 202 202 203 203 203 203 202 202 202 203 202 200 198 197 197 197 199 201 202 203 202 203 206 210 213 215 216 216 218 221 225 229 234 241 248 254 259 263
188 190 191 192 193 195 196 197 198 199 200 201 202 202 203 203 202 202 203 204 205 204 203 202 201 199 198 198 198 199 200 200 200 200 200 201 200 200 200 200 200 199 197 196 196 197 197 197 199 200 202 203 206 210 213 216 217 218 219 222 225 228 233 239 245 251 257 261 265
190 191 192 194 195 197 198 199 200 200 200 201 201 201 201 202 201 201 201 202 204 204 202 199 198 197 197 196 195 196 197 197 196 196 196 197 197 197 198 199 198 196 195 196 197 198 198 197 198 199 201 204 207 211 214 217 219 220 223 226 230 234 239 244 249 253 258 262 266
194 194 194 196 197 198 199 199 200 200 200 200 200 200 200 201 202 201 201 201 203 204 203 200 198 197 197 197 197 197 198 198 198 197 197 198 199 200 202 201 198 196 197 198 199 198 198 197 198 200 202 205 209 212 214 216 219 222 225 229 234 239 244 248 252 256 259 263 266
196 197 197 198 198 198 198 199 199 200 200 200 200 200 201 202 203 203 204 204 204 204 204 203 202 201 201 201 202 202 203 204 204 204 204 206 207 208 207 204 201 199 199 199 198 197 197 198 199 202 205 208 211 213 215 217 220 223 227 232 237 242 247 251 254 257 260 263 267
199 199 199 199 199 199 199 199 200 200 201 201 201 202 203 203 204 205 206 207 206 205 205 206 207 207 206 207 206 206 206 207 207 208 209 208 208 207 206 204 202 200 199 197 196 195 196 198 201 204 208 211 213 215 217 219 222 226 230 235 240 244 248 252 255 258 261 265 268
202 201 201 200 200 200 200 200 200 201 201 202 202 203 204 204 205 205 206 206 206 206 207 208 209 210 210 210 209 208 207 206 207 207 207 205 203 202 201 201 200 199 197 195 194 194 195 198 202 206 209 212 215 216 218 221 224 228 233 237 242 246 250 253 257 261 264 268 272
203 202 202 201 201 200 200 201 201 201 202 202 203 203 203 204 204 204 205 205 206 206 207 207 208 209 210 210 209 208 207 205 203 203 203 202 200 199 199 198 198 197 196 195 194 194 196 199 202 206 209 213 216 218 220 223 227 231 236 241 245 251 255 260 263 267 270 273 277
203 203 202 201 201 201 202 202 202 202 203 203 204 204 204 203 203 204 204 205 206 206 207 206 207 207 207 207 207 207 207 205 202 201 200 200 199 198 197 195 195 195 195 196 195 197 198 201 204 207 211 214 217 220 223 226 230 235 240 246 251 256 262 267 270 273 276 278 281
203 203 202 202 202 202 202 203 203 204 204 204 204 204 203 203 204 204 205 205 205 206 206 206 206 205 204 204 204 204 204 204 203 202 200 199 198 197 195 194 193 194 195 196 197 198 201 204 207 210 214 217 220 223 226 230 235 240 246 251 257 261 266 271 275 278 280 282 282
202 202 203 203 203 203 204 205 205 205 204 204 204 204 204 204 205 205 205 205 205 205 206 206 205 203 202 202 202 202 202 202 203 203 202 200 198 195 194 194 194 195 195 196 197 199 202 206 209 213 216 220 223 226 231 235 240 245 250 255 259 264 268 272 277 280 282 283 284
201 202 203 203 203 204 205 205 205 205 205 206 205 205 205 205 205 205 205 204 204 204 203 203 203 202 201 200 201 201 202 202 202 203 203 201 198 196 195 195 195 195 195 196 197 200 204 207 211 215 218 221 225 228 233 239 243 248 252 257 261 265 269 273 278 281 283 284 285
202 202 202 202 202 203 204 205 205 206 207 207 206 206 206 205 205 205 204 203 202 202 201 200 201 200 200 199 200 201 202 202 203 203 202 200 199 198 197 197 196 195 195 195 198 201 205 209 214 218 222 225 227 230 234 239 244 249 254 258 262 266 271 275 279 281 284 285 286
202 201 201 202 202 203 203 204 206 207 207 207 206 206 205 205 205 204 203 202 202 202 202 201 200 199 199 200 200 200 201 202 203 203 201 200 200 199 199 199 197 196 195 196 199 203 207 211 216 221 225 229 233 235 238 243 247 252 257 262 267 271 275 279 281 283 284 286 287
201 200 201 201 202 202 204 205 206 207 206 206 205 205 205 205 204 204 203 203 203 203 203 202 200 200 200 201 200 200 200 202 202 202 201 201 201 201 201 200 199 197 196 198 202 206 210 214 219 222 226 231 237 243 247 251 256 260 265 269 274 278 281 283 284 285 286 287 287
200 200 200 201 201 203 204 205 205 205 205 205 205 204 205 205 205 205 205 204 203 201 201 200 201 201 201 200 200 200 201 202 202 202 202 202 202 202 202 202 201 199 199 201 205 209 213 218 221 224 226 229 236 244 253 259 263 268 272 276 279 282 284 285 286 287 287 288 287
199 200 200 201 202 203 204 204 204 204 204 204 205 205 205 205 205 205 204 203 202 201 201 201 201 201 200 200 200 200 201 202 203 203 203 203 203 203 203 203 203 202 203 205 209 213 217 220 223 224 225 227 232 241 251 259 264 269 273 277 281 283 285 286 286 287 287 287 287
198 199 200 201 202 202 202 203 203 203 203 203 204 205 205 205 203 202 202 202 202 203 204 204 204 204 203 202 202 201 202 203 203 203 203 203 204 204 205 206 205 205 206 209 213 217 220 222 224 225 225 227 231 237 245 253 260 266 270 275 280 283 284 285 286 286 286 286 285
198 198 199 201 202 202 201 201 201 201 202 202 203 204 205 205 204 203 202 202 202 203 204 205 205 205 204 204 204 203 203 203 204 204 204 204 204 205 207 208 208 208 210 213 217 220 222 224 225 225 227 229 233 237 243 250 256 262 267 272 276 279 282 283 284 284 284 284 283
198 199 199 200 201 201 200 199 199 200 200 201 202 203 204 205 205 204 203 202 201 201 201 202 203 203 202 203 203 204 205 205 205 205 205 204 205 206 208 209 210 211 213 217 221 223 225 226 227 229 231 234 238 242 247 251 256 261 265 269 273 277 280 282 282 282 282 282 282
199 200 200 200 200 200 199 199 198 198 200 202 203 204 204 204 204 203 202 202 200 200 201 202 201 202 203 204 204 205 206 207 207 206 206 205 206 208 209 211 212 213 216 220 224 227 229 231 233 235 237 240 245 249 254 257 260 263 265 268 272 276 279 280 280 280 280 280 281
200 201 201 201 200 199 199 198 198 199 201 203 204 205 205 205 203 201 201 202 201 201 202 203 203 204 206 207 207 208 208 209 209 208 208 207 208 209 211 213 214 216 219 223 228 231 234 237 240 242 244 248 253 257 260 263 264 266 268 270 273 276 278 279 279 279 279 280 281
200 201 202 201 200 199 199 199 200 201 203 204 205 205 205 204 203 202 203 204 204 204 204 205 205 206 208 209 209 210 210 211 212 212 211 211 211 212 214 217 219 220 223 227 232 236 240 244 249 251 254 257 261 264 266 267 268 269 271 272 274 276 278 279 279 279 280 281 282
199 200 201 202 201 200 200 200 202 204 206 206 205 205 205 204 203 203 204 205 207 208 208 208 208 208 209 209 210 211 212 213 214 215 215 215 216 217 219 222 224 226 229 232 237 242 248 254 260 263 265 266 268 270 270 269 269 271 272 273 274 275 277 279 280 280 281 282 283
197 198 199 201 202 202 202 202 203 205 207 208 207 207 206 205 204 203 203 205 207 209 210 210 210 210 210 211 212 213 214 215 216 216 217 218 219 220 222 225 229 232 234 238 245 251 258 264 269 272 274 275 276 275 273 271 270 270 272 274 275 276 277 279 280 281 281 282 283